Doylestown, PA

9:39 PM EDT on March 22, 2017 (GMT -0400)
Doylestown

Weather History for KDYL - February, 2014

Change the Weather History Date:

Monday, February 24, 2014

  Actual Average (KTTN) Record (KTTN)
Temperature  
Mean Temperature 31 °F -  
Max Temperature 37 °F 43 °F 75 °F (2017)
Min Temperature 25 °F 26 °F -2 °F (1889)
Degree Days  
Heating Degree Days 34    
Moisture  
Dew Point 16 °F    
Average Humidity 53    
Maximum Humidity 79    
Minimum Humidity 40    
Precipitation  
Precipitation 0.00 in - - ()
Sea Level Pressure  
Sea Level Pressure 29.97 in    
Wind  
Wind Speed 10 mph (WNW)    
Max Wind Speed 21 mph    
Max Gust Speed 30 mph    
Visibility 10 miles    
Events      
Averages and records for this station are not official NWS values.
T = Trace of Precipitation, MM = Missing Value Source: NWS Daily Summary

Daily Weather History Graph

Daily Weather History Graph

Search for Another Location

Airport or City:

Trip Planner

Search our weather history database for the weather conditions in past years. The results will help you decide how hot, cold, wet, or windy it might be!

Date:

Astronomy

Feb. 24, 2014 Rise Set
Actual Time 6:41 AM EST 5:46 PM EST
Civil Twilight 6:14 AM EST 6:13 PM EST
Nautical Twilight 5:42 AM EST 6:45 PM EST
Astronomical Twilight 5:11 AM EST 7:17 PM EST
Moon 2:38 AM EST (2/24) 12:44 PM EST (2/24)
Length of Visible Light 11h 59m
Length of Day
11h 04m
Waning Crescent, 28% of the Moon is Illuminated
Feb 24
Waning Crescent
Mar 1
New
Mar 8
First Quarter
Mar 16
Full
Mar 23
Last Quarter

Hourly Weather History & Observations

Time (EST) Temp. Windchill Dew Point Humidity Pressure Visibility Wind Dir Wind Speed Gust Speed Precip Events Conditions
12:54 AM 37.0 °F 33.3 °F 30.9 °F 79% 29.87 in 10.0 mi WSW 4.6 mph - N/A   Overcast
1:54 AM 37.0 °F 32.4 °F 30.9 °F 79% 29.87 in 10.0 mi SW 5.8 mph - N/A   Overcast
2:54 AM 36.0 °F 31.1 °F 30.0 °F 79% 29.86 in 10.0 mi SW 5.8 mph - N/A   Clear
3:54 AM 35.1 °F 31.0 °F 28.0 °F 76% 29.87 in 10.0 mi West 4.6 mph - N/A   Clear
4:54 AM 35.1 °F 30.1 °F 21.0 °F 57% 29.88 in 10.0 mi WNW 5.8 mph - N/A   Clear
5:54 AM 34.0 °F 25.0 °F 19.9 °F 56% 29.90 in 10.0 mi WNW 12.7 mph 20.7 mph N/A   Clear
6:54 AM 32.0 °F 24.8 °F 19.0 °F 59% 29.91 in 10.0 mi WNW 8.1 mph - N/A   Clear
7:54 AM 30.9 °F 22.2 °F 17.1 °F 57% 29.95 in 10.0 mi NW 10.4 mph - N/A   Clear
8:54 AM 30.9 °F 19.1 °F 10.9 °F 43% 29.96 in 10.0 mi WNW 18.4 mph 28.8 mph N/A   Clear
9:54 AM 32.0 °F 23.6 °F 14.0 °F 48% 29.97 in 10.0 mi West 10.4 mph - N/A   Clear
10:54 AM 32.0 °F 21.2 °F 12.0 °F 44% 29.98 in 10.0 mi NW 16.1 mph 24.2 mph N/A   Clear
11:54 AM 32.0 °F 22.5 °F 12.0 °F 44% 29.97 in 10.0 mi West 12.7 mph 20.7 mph N/A   Partly Cloudy
12:54 PM 33.1 °F 22.6 °F 12.9 °F 43% 29.95 in 10.0 mi West 16.1 mph 25.3 mph N/A   Partly Cloudy
1:54 PM 33.1 °F 23.0 °F 12.0 °F 42% 29.94 in 10.0 mi WNW 15.0 mph 24.2 mph N/A   Partly Cloudy
2:54 PM 34.0 °F 23.4 °F 12.0 °F 40% 29.95 in 10.0 mi WNW 17.3 mph 26.5 mph N/A   Partly Cloudy
3:54 PM 33.1 °F 21.2 °F 10.9 °F 40% 29.96 in 10.0 mi WNW 20.7 mph 29.9 mph N/A   Partly Cloudy
4:54 PM 32.0 °F 21.6 °F 10.9 °F 42% 29.99 in 10.0 mi West 15.0 mph 26.5 mph N/A   Partly Cloudy
5:54 PM 30.0 °F 18.7 °F 10.9 °F 45% 30.02 in 10.0 mi WNW 16.1 mph 24.2 mph N/A   Clear
6:54 PM 28.9 °F 17.7 °F 10.0 °F 45% 30.06 in 10.0 mi WNW 15.0 mph 23.0 mph N/A   Clear
7:54 PM 28.0 °F 17.5 °F 9.0 °F 45% 30.08 in 10.0 mi WNW 12.7 mph 21.9 mph N/A   Clear
8:54 PM 27.0 °F 16.1 °F 9.0 °F 47% 30.09 in 10.0 mi WNW 12.7 mph 20.7 mph N/A   Clear
9:54 PM 26.1 °F 16.8 °F 10.0 °F 51% 30.12 in 10.0 mi West 9.2 mph - N/A   Clear
10:54 PM 25.0 °F 20.7 °F 10.9 °F 55% 30.11 in 10.0 mi West 3.5 mph - N/A   Clear
11:54 PM 25.0 °F 16.3 °F 12.0 °F 58% 30.11 in 10.0 mi WNW 8.1 mph 17.3 mph N/A   Clear